Погода в Бачатском

Россия / Кемеровская область (Кузбасс)     54°17′04″N   86°06′12″E
темп.,
°C
ветер,
м/с
пор.,
м/с
влажн.,
%
обл.,
%
осадки,
мм/ч
давл.,
гПа
погр.,
м
17 мая, вт
вт1701:00+15ююз3356100 0.0 101236
04:00+16ююз385721 0.0 1011141
07:00+16ююз4106118 0.0 1011282
10:00+22юз68416 0.0 1010723
13:00+25юз673310 0.0 10102595
16:00+26юз573172 0.0 10092795
19:00+25ююз483641 0.0 10081561
22:00+18ю3105013 0.0 1009189
18 мая, ср
ср1801:00+20ююз61540100 0.0 1008443
04:00+19ююз51444100 0.0 1008415
07:00+17юз41057100 0.0 1010253
10:00+22зюз3443100 0.1 1011537
13:00+26з4731100 0.1 10102061
16:00+27з4631100 0.0 10102548
19:00+23ссз2347100 0.0 1011100
22:00+18ссв2256100 0.0 101212
19 мая, чт
чт1901:00+16вюв226386 0.0 101125
04:00+15юв246481 0.0 100955
07:00+18юв2559100 0.0 1007114
10:00+25ююв5836100 0.0 1005673
13:00+27юз61133100 0.0 10051826
16:00+26юз7123995 0.0 10042125
19:00+19зюз613640 1.1 1006721
22:00+16ююз365696 0.0 100991
20 мая, пт
пт2001:00+16з71442100 0.0 10121576
04:00+11юз613625 0.3 1013508
07:00+12юз512565 0.3 1015663
10:00+17зюз7103621 0.0 10162016
13:00+20зюз7103149 0.0 10162926
16:00+21зюз68284 0.0 10152747
19:00+20юз4835100 0.0 10151839
22:00+14ююз3553100 0.0 101579
21 мая, сб
сб2101:00+12ююз355383 0.0 101572
04:00+10ююз335796 0.0 101552
07:00+13ю245644 0.0 1013115
10:00+21юв34315 0.0 10111026
13:00+25вюв55260 0.0 10091192
16:00+27вюв56240 0.0 10061254
19:00+26вюв372961 0.0 1004603
22:00+18вюв224349 0.0 100319